Date String (YYYY-MM-DD hh:mm:ss) UTC,Instrument flags,Ambient pressure (hPa),Sample flow (lpm),Bypass flow (lpm),Sample temperature (°C),Ambient temperature (°C),ASC tube jacket temperature (°C),LED temperature (°C),Box temperature (°C),Sample RH (%),Span deviation,Mass concentration (μg/m³),Mass concentration (μg/m³),Mass concentration (μg/m³)
DateTimeUTC,F1_M11,P_M11,Q1_M11,Q2_M11,T1_M11,T2_M11,T3_M11,T4_M11,T5_M11,U1_M11,ZSPAN_M11,X0_M11,X2_M11,X1_M11
2021-10-20 03:00:00,,0826.6,5.01,0.00,26.7,26.0,00.0,35.7,28.5,17.0,0000.0,0008.62,0003.32,0002.08
2021-10-20 03:01:00,,0826.6,5.00,0.00,26.7,26.0,00.0,35.7,28.5,17.0,0000.0,0008.57,0003.36,0002.09
2021-10-20 03:02:00,,0826.7,5.01,0.00,26.7,26.0,00.0,35.7,28.5,17.0,0000.0,0008.15,0003.34,0002.10
2021-10-20 03:03:00,,0826.7,4.99,0.00,26.7,26.1,00.0,35.7,28.5,17.0,0000.0,0008.10,0003.31,0002.11
2021-10-20 03:04:00,,0826.7,4.99,0.00,26.7,26.1,00.0,35.7,28.5,16.9,0000.0,0008.05,0003.30,0002.13
2021-10-20 03:05:00,,0826.7,5.01,0.00,26.7,26.1,00.0,35.7,28.5,16.9,0000.0,0008.10,0003.32,0002.14
2021-10-20 03:06:00,,0826.7,5.00,0.00,26.7,26.1,00.0,35.7,28.6,16.9,0000.0,0008.36,0003.34,0002.15
2021-10-20 03:07:00,,0826.7,4.99,0.00,26.7,26.1,00.0,35.7,28.6,16.9,0000.0,0008.37,0003.34,0002.17
2021-10-20 03:08:00,,0826.7,5.00,0.00,26.8,26.1,00.0,35.8,28.6,16.9,0000.0,0008.77,0003.34,0002.17
2021-10-20 03:09:00,,0826.7,5.01,0.00,26.8,26.1,00.0,35.8,28.6,16.9,0000.0,0008.81,0003.33,0002.18
2021-10-20 03:10:00,,0826.7,4.99,0.00,26.8,26.1,00.0,35.8,28.7,16.9,0000.0,0008.80,0003.31,0002.20
2021-10-20 03:11:00,,0826.9,5.00,0.00,26.8,26.1,00.0,35.8,28.7,16.8,0000.0,0009.15,0003.33,0002.20
2021-10-20 03:12:00,,0826.7,5.01,0.00,26.9,26.2,00.0,35.8,28.7,16.8,0000.0,0009.65,0003.34,0002.19
2021-10-20 03:13:00,,0826.7,5.00,0.00,26.9,26.2,00.0,35.8,28.7,16.8,0000.0,0010.26,0003.33,0002.18
2021-10-20 03:14:00,,0826.9,5.00,0.00,26.9,26.2,00.0,35.8,28.8,16.7,0000.0,0010.17,0003.32,0002.16
2021-10-20 03:15:00,,0826.7,5.00,0.00,26.9,26.2,00.0,35.9,28.8,16.8,0000.0,0010.59,0003.33,0002.17
2021-10-20 03:16:00,,0826.8,5.01,0.00,26.9,26.2,00.0,35.9,28.8,16.8,0000.0,0011.00,0003.30,0002.18
2021-10-20 03:17:00,,0826.7,5.00,0.00,27.0,26.3,00.0,35.9,28.8,16.8,0000.0,0010.75,0003.30,0002.17
2021-10-20 03:18:00,,0826.8,5.00,0.00,27.0,26.3,00.0,35.9,28.8,16.8,0000.0,0011.88,0003.28,0002.17
2021-10-20 03:19:00,,0826.8,5.01,0.00,27.0,26.2,00.0,35.9,28.8,16.7,0000.0,0011.61,0003.24,0002.17
2021-10-20 03:20:00,,0826.8,5.01,0.00,27.0,26.3,00.0,35.9,28.8,16.7,0000.0,0011.92,0003.25,0002.19
2021-10-20 03:21:00,,0826.7,4.99,0.00,27.0,26.3,00.0,36.0,28.8,16.6,0000.0,0012.18,0003.22,0002.19
2021-10-20 03:22:00,,0826.8,4.99,0.00,27.0,26.3,00.0,36.0,28.9,16.6,0000.0,0012.04,0003.19,0002.21
2021-10-20 03:23:00,,0826.9,5.00,0.00,27.0,26.3,00.0,36.0,28.9,16.6,0000.0,0011.57,0003.14,0002.22
2021-10-20 03:24:00,,0827.0,4.99,0.00,27.1,26.3,00.0,36.0,28.9,16.5,0000.0,0011.14,0003.14,0002.24
2021-10-20 03:25:00,,0826.8,5.00,0.00,27.1,26.3,00.0,36.0,28.9,16.3,0000.0,0011.49,0003.18,0002.26
2021-10-20 03:26:00,,0826.9,5.01,0.00,27.1,26.3,00.0,36.0,28.9,16.0,0000.0,0011.51,0003.20,0002.27
2021-10-20 03:27:00,,0826.9,4.99,0.00,27.1,26.3,00.0,36.1,28.9,16.0,0000.0,0011.03,0003.20,0002.29
2021-10-20 03:28:00,,0826.9,5.00,0.00,27.1,26.3,00.0,36.1,28.9,16.1,0000.0,0010.98,0003.23,0002.31
2021-10-20 03:29:00,,0826.9,5.00,0.00,27.1,26.3,00.0,36.1,28.9,16.1,0000.0,0009.86,0003.26,0002.32
2021-10-20 03:30:00,,0826.9,5.00,0.00,27.1,26.3,00.0,36.1,28.9,16.1,0000.0,0009.75,0003.32,0002.35
2021-10-20 03:31:00,,0826.9,4.99,0.00,27.1,26.3,00.0,36.1,29.0,16.2,0000.0,0009.37,0003.37,0002.35
2021-10-20 03:32:00,,0827.0,5.00,0.00,27.2,26.3,00.0,36.1,29.0,16.1,0000.0,0009.45,0003.39,0002.37
2021-10-20 03:33:00,,0827.0,5.01,0.00,27.2,26.3,00.0,36.1,29.0,16.1,0000.0,0009.69,0003.38,0002.37
2021-10-20 03:34:00,,0827.0,5.00,0.00,27.2,26.3,00.0,36.1,29.0,16.1,0000.0,0009.78,0003.38,0002.38
2021-10-20 03:35:00,,0827.3,5.00,0.00,27.2,26.3,00.0,36.2,29.0,16.2,0000.0,0009.79,0003.38,0002.38
2021-10-20 03:36:00,,0827.3,5.01,0.00,27.2,26.3,00.0,36.2,29.0,16.2,0000.0,0011.01,0003.37,0002.40
2021-10-20 03:37:00,,0827.1,5.00,0.00,27.2,26.4,00.0,36.2,29.0,16.2,0000.0,0010.75,0003.34,0002.40
2021-10-20 03:38:00,,0827.1,5.00,0.00,27.2,26.3,00.0,36.2,29.0,16.2,0000.0,0010.50,0003.35,0002.40
2021-10-20 03:39:00,,0827.2,5.00,0.00,27.2,26.3,00.0,36.2,29.0,16.2,0000.0,0010.62,0003.34,0002.40
2021-10-20 03:40:00,,0827.1,4.99,0.00,27.2,26.3,00.0,36.2,29.0,16.3,0000.0,0010.59,0003.33,0002.43
2021-10-20 03:41:00,,0827.1,5.00,0.00,27.2,26.3,00.0,36.2,29.0,16.3,0000.0,0010.70,0003.34,0002.44
2021-10-20 03:42:00,,0827.2,5.00,0.00,27.2,26.4,00.0,36.2,29.0,16.3,0000.0,0011.09,0003.36,0002.46
2021-10-20 03:43:00,,0827.2,5.00,0.00,27.3,26.4,00.0,36.2,29.1,16.3,0000.0,0011.34,0003.37,0002.47
2021-10-20 03:44:00,,0827.2,5.00,0.00,27.3,26.4,00.0,36.2,29.0,16.3,0000.0,0010.59,0003.42,0002.49
2021-10-20 03:45:00,,0827.2,4.99,0.00,27.3,26.4,00.0,36.3,29.0,16.3,0000.0,0010.50,0003.46,0002.52
2021-10-20 03:46:00,,0827.2,5.00,0.00,27.2,26.4,00.0,36.3,29.0,16.2,0000.0,0011.41,0003.49,0002.52
2021-10-20 03:47:00,,0827.2,5.01,0.00,27.3,26.4,00.0,36.3,29.0,16.2,0000.0,0010.19,0003.51,0002.52
2021-10-20 03:48:00,,0827.2,5.01,0.00,27.3,26.4,00.0,36.3,29.1,16.2,0000.0,0010.43,0003.53,0002.53
2021-10-20 03:49:00,,0827.2,5.00,0.00,27.3,26.4,00.0,36.3,29.1,16.2,0000.0,0010.56,0003.56,0002.54
2021-10-20 03:50:00,,0827.2,5.00,0.00,27.3,26.4,00.0,36.3,29.1,16.2,0000.0,0010.58,0003.54,0002.55
2021-10-20 03:51:00,,0827.2,5.00,0.00,27.3,26.4,00.0,36.3,29.1,16.3,0000.0,0011.24,0003.52,0002.54
2021-10-20 03:52:00,,0827.3,5.00,0.00,27.3,26.3,00.0,36.3,29.0,16.3,0000.0,0011.23,0003.51,0002.53
2021-10-20 03:53:00,,0827.3,5.00,0.00,27.3,26.3,00.0,36.3,29.0,16.4,0000.0,0010.92,0003.48,0002.52
2021-10-20 03:54:00,,0827.3,5.01,0.00,27.2,26.3,00.0,36.3,29.0,16.4,0000.0,0010.83,0003.46,0002.51
2021-10-20 03:55:00,,0827.3,4.98,0.00,27.2,26.3,00.0,36.3,29.0,16.4,0000.0,0011.50,0003.47,0002.50
2021-10-20 03:56:00,,0827.4,5.00,0.00,27.2,26.3,00.0,36.3,29.0,16.4,0000.0,0011.71,0003.44,0002.49
2021-10-20 03:57:00,,0827.4,5.01,0.00,27.2,26.3,00.0,36.3,29.0,16.5,0000.0,0011.08,0003.41,0002.50
2021-10-20 03:58:00,,0827.4,5.00,0.00,27.2,26.3,00.0,36.3,28.9,16.5,0000.0,0012.04,0003.37,0002.50
2021-10-20 03:59:00,,0827.4,5.00,0.00,27.2,26.3,00.0,36.3,28.9,16.5,0000.0,0011.82,0003.34,0002.48
